User: anonymous
Location: Vancouver
(49.2500°N, 123.1330°W)
Time: 21:30:14
(UTC-07:00)
Language:

BREEZE-M DEB (TANK) - Orbit

View from above orbital plane
View from above orbital plane
View from above satellite
View from above satellite

Ground track
Ground track

The orbit data is extracted from the following two-line orbital elements,

1 27821U 03024B   14212.85603869  .00005835  00000-0  55508-3 0  4525
2 27821 049.5578 126.3042 5020822 318.6385 029.7769 05.62570333220492
Epoch (UTC): 31 July 2014 20:32:41
Eccentricity: 0.5020822
inclination: 49.5578°
perigee height: 271 km
apogee height: 13681 km
right ascension of ascending node: 126.3042°
argument of perigee: 318.6385°
revolutions per day: 5.62570333
mean anomaly at epoch: 29.7769°
orbit number at epoch: 22049

The dashed part of the orbit path shows where the satellite is in the earth's shadow,  

DLR